Theta_e
339 343 341 345 347 348 352 348 347 348 348 345 345 343 338 336 329 326 325 327 328 334 330 327 344 342 345 347 342 343 341 341 341 341 340 339 342 341 339 340 340 340 339 337 337 338 338 338 339 338 338 338 337 336 336 336 336 335 335 336 335 335 335 336 335 335 335 335 336 337 338 339 340 340
351 346 347 346 349 352 349 346 342 343 344 344 344 344 347 344 334 331 326 326 332 330 334 330 341 347 345 343 344 342 341 345 343 340 339 338 338 340 338 338 338 338 338 337 335 336 336 336 337 338 338 338 337 337 336 336 336 335 335 335 335 335 335 335 335 335 335 335 335 336 336 337 337 338
347 348 347 348 347 350 345 346 344 346 350 346 346 347 345 342 339 335 333 325 333 336 333 337 336 335 340 340 337 340 341 345 344 341 340 340 342 341 340 338 337 336 336 336 335 334 334 334 334 335 336 338 338 338 337 337 336 336 335 335 335 334 335 334 334 335 334 335 335 335 335 335 336 336
343 342 341 344 342 346 347 344 345 346 346 344 345 342 341 341 340 339 334 330 328 338 336 335 337 337 335 344 343 341 341 343 345 340 340 339 342 338 337 339 338 336 335 335 334 333 333 332 333 334 335 335 338 338 337 336 336 336 336 335 335 335 334 333 334 334 334 334 334 334 335 335 335 336
346 347 344 345 346 350 347 345 343 343 344 346 344 342 342 340 340 337 335 331 331 335 339 337 336 337 339 334 338 338 339 340 341 343 340 340 338 338 338 338 338 337 335 334 334 333 332 332 332 333 334 335 336 337 336 335 334 333 333 333 332 332 332 332 332 333 333 333 334 334 334 335 335 335
343 343 343 344 345 347 342 340 341 342 340 337 336 340 337 337 338 340 336 333 330 328 334 336 339 337 338 333 341 338 338 337 340 339 341 343 341 339 338 337 337 336 336 335 334 333 332 331 331 332 333 334 334 335 335 333 331 332 332 331 331 330 330 329 330 331 331 332 332 333 333 334 334 335
343 343 341 339 342 343 340 340 339 340 338 338 337 341 342 339 340 342 341 336 330 328 329 334 333 334 339 337 337 340 340 339 340 338 337 337 338 339 338 338 338 337 335 334 333 332 332 331 331 331 331 331 332 331 331 330 330 330 329 328 328 328 329 328 328 329 330 330 332 333 333 333 333 334
341 340 340 338 338 339 339 339 340 340 340 340 341 339 340 339 339 340 339 337 332 331 329 333 334 337 336 337 339 340 339 336 337 337 337 338 336 336 337 336 336 337 335 334 332 332 331 330 329 329 329 328 328 327 327 327 327 326 326 326 326 325 325 324 324 326 326 327 327 330 331 332 332 332
339 338 337 338 337 338 337 338 337 338 338 338 338 338 340 340 340 339 338 339 339 336 333 333 336 338 337 338 338 339 336 336 335 336 336 336 335 336 337 337 337 336 334 333 332 331 331 331 330 329 328 327 327 326 326 326 324 324 323 322 322 323 324 323 323 323 324 324 324 325 327 329 330 329
341 340 339 339 340 339 337 336 336 338 338 338 338 338 338 341 342 338 336 338 339 338 335 334 331 335 335 334 335 338 338 333 331 331 333 335 335 335 335 335 335 335 334 333 335 335 332 331 330 330 329 328 326 325 325 325 324 323 321 318 319 322 321 320 321 322 321 321 321 321 324 326 327 328
341 341 341 341 341 339 338 337 337 338 338 338 337 339 340 338 340 338 339 337 334 333 332 333 334 333 333 333 330 335 336 334 331 328 328 329 334 337 335 333 334 333 332 334 334 334 334 334 332 328 327 326 327 326 324 324 323 322 321 319 318 317 317 319 318 318 319 320 320 321 320 319 322 325
341 341 340 340 340 339 339 337 338 339 338 339 338 339 339 341 338 335 335 334 333 332 332 331 329 331 330 331 332 334 332 330 331 333 330 326 327 329 333 333 331 333 334 333 333 332 332 331 331 329 328 328 327 325 325 327 327 326 322 321 322 322 319 318 317 317 317 317 318 319 320 320 320 321
342 341 340 340 339 339 343 341 341 342 341 338 335 336 338 338 337 336 335 334 333 332 331 329 331 330 329 329 329 328 328 327 325 329 329 326 327 328 328 330 334 334 332 331 330 330 331 330 330 331 331 333 334 332 330 330 330 328 323 322 322 322 321 319 318 317 317 316 316 316 318 319 319 319
339 339 339 339 341 341 342 341 339 337 337 336 337 338 338 338 336 333 331 330 330 329 328 328 328 326 324 325 326 326 326 328 329 328 329 326 327 328 327 329 331 334 332 329 327 329 333 331 330 331 330 332 333 332 332 332 331 328 325 324 324 323 322 320 319 317 317 316 316 316 315 316 317 317
339 338 339 341 340 341 337 336 338 338 337 336 335 334 333 335 334 330 328 326 327 327 327 328 327 325 324 326 328 327 326 326 327 328 328 328 327 324 322 320 326 333 331 329 327 327 331 331 328 328 329 329 330 330 330 328 328 325 325 324 324 323 323 323 321 319 317 317 317 317 316 316 316 317
339 339 338 339 341 342 339 339 339 339 335 332 332 332 332 332 332 333 331 328 326 326 325 326 326 325 325 325 327 327 326 328 327 328 328 326 325 323 322 322 320 328 333 327 324 322 326 327 325 324 326 328 329 329 328 326 324 323 323 323 322 321 321 322 323 322 320 320 320 320 320 319 318 318
339 338 336 337 341 340 341 340 339 337 334 331 329 330 333 334 331 328 327 327 330 327 326 325 325 325 325 326 328 330 331 331 326 326 324 324 324 323 321 320 321 324 328 323 320 318 322 325 323 322 325 326 327 327 326 325 324 323 323 322 321 321 321 321 321 321 322 321 319 318 318 319 319 318
337 338 338 337 337 339 339 338 337 336 335 334 333 334 334 334 335 332 327 325 324 326 326 327 326 329 330 326 329 332 332 328 325 323 321 322 321 320 319 321 322 324 327 322 320 318 321 324 323 322 324 326 327 327 326 325 324 322 319 319 319 318 319 319 319 319 319 319 319 318 316 315 314 315
339 339 338 337 339 339 338 337 336 335 335 336 335 335 334 334 335 335 336 335 334 332 330 329 329 330 332 332 331 333 331 328 326 324 322 321 321 322 323 323 324 324 326 325 322 317 320 324 323 323 324 326 326 326 322 321 320 320 319 319 319 318 318 319 319 319 318 319 318 317 316 315 314 314
339 340 339 339 338 338 337 334 332 334 337 335 334 333 332 332 331 331 333 330 332 333 333 334 333 332 332 326 328 327 324 324 325 325 324 323 322 320 318 317 319 319 322 324 321 318 317 321 317 317 318 319 318 320 321 321 320 320 319 319 319 317 317 317 318 318 318 318 318 317 316 314 313 313
341 341 340 340 338 336 336 332 324 327 335 334 334 333 331 330 329 328 331 328 324 324 322 321 323 319 317 317 316 314 315 319 321 322 320 318 319 317 315 316 316 317 319 321 321 318 315 318 317 316 318 318 317 317 318 319 319 320 319 318 317 316 315 316 317 317 318 318 318 317 316 314 313 314
341 341 341 340 339 337 337 328 324 325 332 331 332 332 331 328 328 329 330 329 330 324 321 320 318 318 318 318 316 316 315 315 317 320 316 318 319 316 316 314 316 317 319 320 322 317 314 317 318 315 315 315 316 315 315 316 317 319 318 318 317 316 316 315 315 317 317 318 317 317 316 314 315 318
340 341 341 341 340 339 336 323 322 322 329 330 331 332 330 327 326 329 330 330 328 330 330 331 330 329 326 325 325 326 321 319 320 321 320 321 320 317 317 316 316 315 317 321 326 313 313 313 314 312 309 307 311 313 314 315 317 319 321 322 324 321 319 317 316 314 316 316 316 316 315 314 314 318
337 340 340 337 328 325 324 319 317 316 319 328 331 331 328 325 326 324 324 328 327 327 326 326 326 325 326 325 325 326 327 329 330 324 323 323 323 321 320 320 319 315 314 319 318 313 312 313 311 313 310 306 305 310 314 315 318 320 322 323 323 323 323 322 320 318 316 315 315 315 315 313 314 318
336 337 338 339 326 317 315 313 311 310 311 318 324 327 326 324 317 316 323 324 327 324 325 324 323 323 324 324 324 323 325 322 321 322 322 325 324 322 316 313 312 311 312 315 318 314 312 313 311 312 311 311 311 311 314 317 320 321 323 323 323 324 324 323 322 323 320 317 315 314 313 313 313 315
335 337 338 337 324 312 312 310 306 306 308 311 320 318 305 306 311 319 321 321 321 321 321 320 320 320 319 320 321 320 320 320 321 320 318 318 318 316 315 313 312 310 311 317 318 316 314 312 312 311 311 311 312 315 314 316 319 321 322 323 323 323 323 322 322 323 323 324 325 321 323 318 316 314
337 339 338 336 315 310 306 303 303 304 306 310 315 302 305 307 309 317 320 321 321 320 319 319 320 320 321 319 319 320 320 319 321 319 318 317 316 317 317 318 317 315 316 317 319 318 315 313 315 313 313 314 313 315 315 314 316 320 320 321 321 322 323 323 322 323 324 324 325 320 318 318 318 316
339 340 338 322 304 301 298 300 303 306 309 316 302 303 305 309 315 318 319 318 319 319 319 319 320 320 321 320 319 319 320 318 319 318 317 317 317 318 318 318 318 317 317 316 316 316 317 315 316 318 318 317 315 313 312 317 318 318 317 319 321 321 322 323 323 324 324 324 325 326 326 326 328 328
328 313 304 300 301 301 301 303 305 307 307 306 305 306 307 314 318 319 318 318 319 320 319 320 319 317 317 316 317 321 321 318 317 317 318 319 319 318 317 317 319 319 318 317 316 317 318 318 319 320 321 320 317 316 316 315 316 316 317 317 316 319 321 322 322 322 322 323 324 324 324 326 327 329
307 306 304 303 304 305 307 311 315 319 320 310 309 310 311 317 317 318 318 319 318 319 319 318 316 315 315 317 322 320 318 316 316 317 317 317 315 314 314 312 313 314 315 316 317 318 319 320 322 322 321 319 318 317 316 315 315 317 318 317 317 320 322 321 321 321 322 322 322 322 324 325 326 328
314 310 313 314 312 313 313 317 319 320 322 321 317 317 318 318 319 319 320 320 320 318 316 317 318 317 321 322 319 317 316 315 317 318 315 313 311 312 312 311 310 311 314 317 319 320 321 322 322 323 319 318 319 318 318 319 317 316 316 317 318 314 317 319 320 320 320 321 321 322 323 324 326 329
320 319 316 313 319 320 318 318 320 320 322 322 322 321 321 320 321 322 324 324 321 320 319 318 319 321 321 316 314 312 312 312 314 316 315 313 312 313 311 308 308 309 312 316 320 322 325 323 323 323 321 319 316 318 320 319 317 316 316 317 318 318 318 317 317 318 320 320 319 319 321 322 324 328
325 324 321 320 320 321 319 319 319 319 321 322 322 323 322 322 321 321 321 318 318 320 320 318 321 317 316 314 312 311 311 313 313 314 314 315 312 311 311 309 309 309 310 312 316 318 320 321 324 323 321 321 321 321 319 316 315 316 315 316 316 315 316 317 317 317 319 318 318 318 318 321 325 330
325 324 323 322 321 321 322 321 320 320 320 321 321 321 320 321 319 319 319 323 318 317 319 318 317 315 314 310 311 311 310 310 312 312 311 310 312 311 310 308 308 309 311 312 314 315 317 319 320 321 322 322 323 322 320 316 315 316 317 316 315 314 316 316 317 317 318 318 318 317 317 318 323 331
325 325 324 324 325 323 323 321 318 322 319 319 321 320 323 321 319 318 315 313 319 316 314 315 314 314 312 311 311 308 309 309 309 309 311 312 312 309 308 307 307 309 310 311 312 314 315 315 316 316 318 318 316 318 324 321 317 316 316 315 315 315 314 316 316 316 317 318 318 315 315 317 320 327
326 324 323 322 322 322 319 319 324 319 320 322 323 322 321 320 319 319 314 316 315 317 317 313 312 311 310 309 309 309 309 309 307 308 309 308 308 308 308 309 309 308 308 309 311 312 313 314 316 314 313 312 311 309 312 322 322 317 314 313 315 314 314 315 315 316 316 316 317 315 312 312 314 319
321 322 323 322 323 320 320 324 321 322 319 322 322 326 323 321 323 318 320 317 320 314 315 311 310 310 310 309 310 309 308 307 306 308 308 308 308 308 308 307 307 308 307 308 309 311 314 315 316 316 313 311 308 307 310 315 316 316 317 314 314 314 313 314 313 313 314 315 314 314 312 312 313 318
321 323 322 321 323 323 321 320 319 319 322 321 321 322 319 325 321 322 319 316 315 311 309 309 308 309 307 309 308 307 307 308 308 307 307 307 307 307 306 305 305 307 306 307 309 312 315 317 315 315 314 310 308 308 308 312 314 314 314 316 314 313 314 312 311 311 312 314 312 313 314 313 315 319
322 321 321 322 323 324 321 320 319 324 322 323 323 321 318 317 320 319 315 313 312 311 311 313 312 309 307 307 308 307 308 307 306 306 306 306 306 306 305 306 306 306 306 306 309 312 314 314 314 316 315 311 309 310 312 311 311 315 316 311 313 313 312 312 311 312 312 311 310 312 313 316 318 320
321 326 322 324 323 327 321 322 325 326 324 324 322 324 321 320 318 318 316 314 311 311 309 307 307 304 306 308 308 308 307 307 306 305 305 306 306 306 306 307 306 306 306 306 307 310 312 313 315 318 316 316 316 318 318 317 317 318 316 315 308 310 312 312 311 311 311 311 310 308 308 311 310 314
322 320 322 327 325 323 326 326 323 324 322 326 320 315 316 316 315 315 314 314 313 311 306 305 304 305 306 309 309 307 305 306 305 305 306 305 305 306 307 307 306 307 305 306 308 309 311 312 321 320 321 320 320 319 315 310 308 310 311 313 310 310 309 310 312 312 311 312 308 307 306 307 307 311
322 326 327 326 325 322 322 322 321 321 323 320 318 318 322 321 319 313 314 312 314 314 309 306 306 308 310 311 308 307 306 305 304 305 305 304 304 305 307 306 305 305 305 305 307 309 312 315 323 321 320 319 316 312 308 308 308 309 310 311 313 311 311 310 311 312 313 312 307 305 305 306 307 306
322 323 326 326 324 325 323 326 321 317 318 320 319 318 319 314 317 315 312 311 312 308 307 309 313 312 310 309 310 309 306 304 305 304 304 305 305 304 304 305 305 306 306 307 309 311 311 313 321 320 317 316 315 315 310 310 310 310 309 309 310 311 313 313 312 311 312 313 310 308 307 306 304 300
327 326 324 330 327 325 325 323 322 325 324 320 319 317 318 316 314 313 312 309 310 311 314 313 313 311 310 310 309 307 305 305 305 305 305 305 305 306 305 305 306 306 306 307 307 307 309 312 316 319 313 313 315 313 311 310 309 310 309 308 309 308 309 311 312 311 311 311 310 309 309 309 310 309
328 325 326 325 325 327 324 322 322 321 319 322 316 315 315 314 312 309 308 309 309 311 311 313 312 312 311 309 306 303 304 304 304 306 306 305 305 305 305 305 305 305 305 306 305 306 308 311 314 315 314 313 315 314 314 312 310 309 308 307 306 307 308 309 307 307 307 307 308 309 308 309 309 310
Wind_Speed
3 3 4 4 3 2 1 1 1 1 2 2 1 2 2 1 2 3 3 5 4 3 6 4 2 3 3 3 5 4 4 5 6 5 6 4 3 6 9 13 15 16 16 16 16 15 15 14 13 14 14 14 14 13 13 13 13 12 12 12 13 13 12 12 13 14 14 13 13 14 14 14 15 15
2 2 2 3 3 2 1 2 3 3 3 3 3 1 0 1 2 2 4 5 3 4 4 5 1 3 5 6 5 5 5 7 7 4 5 5 5 9 11 11 14 15 15 16 15 15 15 15 14 14 14 14 15 15 15 15 14 14 13 13 13 13 13 11 12 13 14 14 14 14 15 15 15 15
2 2 2 2 1 1 2 1 1 1 2 4 2 1 3 3 3 3 3 5 3 3 3 3 4 4 3 4 4 3 4 6 8 6 5 5 8 11 8 10 12 14 16 16 16 16 17 16 16 15 15 14 15 16 15 14 15 15 15 15 15 14 14 12 12 13 14 14 15 14 15 16 16 16
6 6 4 3 3 2 1 2 1 1 2 2 2 4 4 5 5 4 4 5 7 4 4 5 4 4 4 3 3 4 4 5 8 5 5 5 9 7 6 11 13 14 15 16 17 18 18 18 18 17 16 16 14 15 16 15 15 15 15 15 15 14 14 14 13 14 14 15 15 16 16 16 16 17
3 4 4 3 3 2 1 2 3 2 0 1 3 4 4 4 4 5 4 5 6 4 3 5 4 4 4 4 4 5 4 4 4 6 5 6 6 6 6 7 11 14 15 17 18 19 19 18 18 18 18 17 15 15 16 17 17 17 16 16 16 16 16 15 15 15 15 15 15 16 17 17 17 17
3 3 2 3 1 1 2 3 2 2 2 3 4 4 6 5 5 4 4 4 5 8 3 4 4 5 4 6 3 3 4 3 3 3 3 3 3 4 5 6 6 11 12 15 17 17 16 15 15 16 17 18 18 18 18 18 18 18 17 17 17 17 17 17 16 16 16 16 16 16 17 17 18 19
5 4 4 4 4 3 2 2 3 3 4 3 4 2 1 2 2 1 2 2 4 6 7 4 5 4 3 4 4 4 4 4 4 3 4 5 4 5 5 6 5 9 11 11 11 13 14 15 16 17 18 18 18 19 20 20 19 18 18 18 18 18 18 17 17 17 16 17 17 17 17 17 18 19
6 6 5 6 6 6 5 3 2 3 3 4 3 3 3 3 3 3 3 5 6 6 7 5 5 4 4 4 4 4 5 5 4 4 5 5 6 6 6 6 6 8 12 13 14 15 15 16 17 17 18 17 18 19 20 20 20 19 19 19 19 19 19 18 18 18 18 18 19 18 17 17 17 18
6 6 7 7 7 6 7 6 5 5 5 5 4 4 3 3 4 3 4 5 5 5 6 6 5 5 5 5 6 5 5 4 5 4 5 6 6 6 6 6 6 10 14 15 16 16 16 17 18 18 18 18 19 19 20 20 20 20 20 20 20 20 20 21 20 19 19 19 19 19 19 17 17 20
6 6 6 5 3 3 3 5 6 5 4 4 4 4 4 3 2 3 7 5 3 4 6 6 6 5 6 5 4 4 4 5 6 5 5 4 5 5 5 5 5 5 6 5 7 10 13 17 19 19 18 19 20 20 20 20 20 20 20 21 21 22 22 21 21 20 20 20 20 20 20 21 20 20
6 5 5 3 3 4 5 4 4 4 4 4 4 3 2 3 3 3 3 2 4 5 6 6 6 6 5 5 6 4 4 6 6 7 6 6 4 4 5 6 5 6 7 9 11 10 10 11 10 13 19 21 21 21 20 20 20 20 21 22 23 22 22 21 21 22 21 20 20 21 21 20 21 18
6 5 4 4 3 4 5 6 4 3 3 3 3 2 3 3 3 5 5 5 5 6 6 5 6 5 5 5 5 5 5 5 5 5 5 6 5 6 4 5 6 5 6 7 7 9 11 11 13 16 16 17 18 19 18 19 20 21 22 23 23 23 22 22 22 22 22 21 20 20 20 20 21 21
6 5 3 2 2 4 7 8 4 2 6 3 3 3 4 4 4 4 4 4 5 5 5 6 5 5 5 5 5 5 5 6 7 5 5 6 5 5 6 5 5 5 7 7 8 8 7 8 7 6 6 7 10 13 17 16 21 22 21 21 22 23 23 23 22 20 19 20 21 21 22 23 23 23
6 5 4 4 7 8 3 5 5 3 3 2 2 3 4 3 3 4 6 7 7 7 6 6 6 6 6 5 4 5 6 5 5 5 3 5 5 6 7 6 5 5 6 7 8 7 6 8 7 5 7 5 7 7 7 7 10 12 17 20 21 21 21 21 21 21 20 21 21 21 22 23 24 24
6 4 3 2 4 6 2 2 3 1 3 1 3 7 8 7 5 6 7 8 8 8 7 6 6 7 7 6 5 6 6 6 4 4 4 5 5 6 7 8 5 4 6 6 7 7 4 6 8 6 8 8 9 9 8 12 15 16 15 14 15 18 21 21 21 20 20 20 21 22 23 24 24 24
5 4 3 2 2 3 4 3 1 1 3 1 2 6 8 11 11 9 8 8 8 7 7 7 7 8 7 6 6 6 6 4 5 5 5 6 6 7 6 6 7 3 5 7 8 10 6 7 9 9 8 9 8 10 12 15 16 17 18 18 16 14 13 14 16 17 18 19 21 23 24 23 24 24
5 4 4 3 3 3 9 6 4 4 3 4 6 5 8 11 11 11 12 11 10 8 8 9 9 9 8 7 5 4 3 3 6 5 6 5 6 6 7 7 7 6 5 9 10 12 7 6 8 9 9 9 9 10 12 15 17 18 18 17 14 14 14 14 16 17 19 21 21 22 23 24 23 23
5 5 5 5 4 4 4 5 6 6 5 4 3 4 6 7 7 9 11 13 15 13 10 9 10 8 5 8 6 4 3 4 4 4 6 5 7 8 9 9 9 9 6 9 9 11 8 7 8 10 10 9 9 9 13 19 19 12 11 12 13 14 15 17 18 20 21 22 22 21 20 20 21 22
5 5 6 6 5 5 5 4 5 5 6 5 6 6 7 6 6 6 8 8 7 7 8 9 12 11 9 9 6 2 1 2 3 4 5 7 8 9 9 9 9 9 7 10 8 12 8 7 9 9 8 6 6 5 8 11 11 13 12 11 13 15 17 19 21 23 23 22 21 21 21 23 25 27
5 5 6 5 6 6 6 6 8 6 4 3 4 6 7 7 7 8 9 13 13 9 7 7 9 11 8 4 3 3 4 4 4 5 5 6 7 8 8 9 8 7 6 7 8 9 8 4 7 7 8 9 9 7 7 10 12 13 17 18 19 20 21 23 24 25 24 22 21 23 24 26 28 29
5 5 6 6 6 7 6 7 8 7 5 4 6 7 6 6 6 8 8 10 11 11 14 15 13 2 2 5 6 7 11 9 7 6 6 8 8 8 9 8 7 8 6 6 8 9 10 7 6 7 6 6 8 9 8 8 12 15 15 16 16 17 20 22 23 22 22 23 25 26 27 28 28 31
6 7 12 10 7 6 5 7 8 7 5 5 6 7 7 7 8 7 6 6 5 8 6 6 6 6 6 6 10 12 13 15 10 6 9 11 9 9 8 9 8 8 7 8 10 8 7 5 3 7 7 8 6 9 8 10 11 14 13 15 17 19 20 21 21 22 24 25 27 28 29 28 28 23
5 5 9 12 8 5 5 9 9 9 7 7 7 7 5 6 5 3 3 4 4 2 2 2 3 4 6 8 8 9 15 17 14 9 11 11 9 9 9 10 9 9 7 7 3 6 6 7 5 7 10 11 7 7 8 9 9 9 9 10 12 15 17 19 22 23 23 25 27 29 30 31 28 18
6 7 6 7 8 9 8 8 9 9 10 7 5 3 2 4 4 4 4 5 4 3 4 4 5 6 6 7 7 9 10 10 10 12 11 10 9 9 9 9 9 9 5 2 9 8 7 6 8 6 8 11 12 7 8 9 9 10 9 10 10 15 19 20 18 20 22 24 26 28 30 30 28 17
6 6 5 5 8 9 8 9 8 7 6 3 2 1 2 2 1 3 4 5 8 5 5 6 6 8 8 8 9 8 5 4 6 5 4 3 4 4 5 6 8 8 9 8 10 7 7 7 10 8 8 7 10 12 9 10 10 10 10 11 12 11 12 12 12 14 17 24 25 27 27 28 30 23
5 5 4 3 7 11 10 7 6 6 5 2 1 3 5 2 2 2 4 4 4 5 5 5 6 6 6 5 4 6 6 6 5 6 6 6 7 7 8 8 9 9 10 9 10 7 8 7 9 10 9 9 11 10 12 11 11 11 10 10 9 10 11 12 13 14 14 13 14 16 19 24 24 27
4 3 3 3 7 8 8 8 7 5 4 2 1 3 1 2 2 3 3 4 4 5 5 6 6 6 6 5 5 4 4 5 4 5 5 7 8 8 9 9 8 9 8 8 8 8 8 9 9 9 11 9 11 11 10 12 12 11 11 10 10 10 11 11 12 13 13 13 14 20 21 23 26 25
3 4 3 6 10 10 10 9 6 5 5 1 4 5 5 6 3 3 3 4 5 6 6 6 6 5 4 4 4 4 4 5 5 6 7 8 8 7 6 8 9 9 9 9 8 8 8 10 10 8 8 9 10 11 12 10 11 11 14 13 11 11 11 11 12 13 13 12 13 13 12 13 13 13
1 6 13 14 13 11 9 9 7 4 6 9 10 9 7 4 3 3 4 5 5 5 6 5 3 4 4 5 5 3 4 6 8 7 7 7 6 7 7 7 7 6 7 8 9 9 9 8 8 7 8 7 9 9 9 11 11 11 11 13 13 11 12 12 11 12 13 13 13 12 12 13 14 13
10 12 13 13 12 10 9 6 4 5 6 10 11 9 6 3 4 5 6 6 6 6 5 3 3 4 5 5 2 4 6 7 7 5 6 5 5 5 6 7 7 7 9 9 10 9 8 7 6 6 6 7 8 10 10 10 11 12 12 12 13 13 9 10 12 12 12 13 13 14 13 13 15 15
6 8 8 7 8 6 10 8 4 4 4 4 4 4 4 6 7 7 7 7 7 7 6 4 3 4 2 2 3 5 5 6 6 4 5 6 6 5 6 7 9 9 8 9 9 7 5 5 7 6 6 9 9 9 10 9 11 13 13 11 11 13 13 12 11 12 12 13 13 14 14 13 13 15
7 5 4 5 3 3 3 3 3 4 5 5 6 6 6 7 8 10 12 9 6 5 6 5 4 2 0 2 3 5 5 5 5 4 4 5 6 6 6 7 8 8 8 7 5 4 6 6 6 5 6 8 10 11 8 9 11 12 13 12 12 13 13 13 13 13 12 13 14 14 14 13 14 14
8 6 6 5 5 5 5 5 6 7 7 7 8 8 8 7 8 9 8 8 8 8 6 4 3 1 2 3 4 5 6 5 5 4 5 5 7 7 6 8 8 8 8 8 6 6 6 6 5 6 7 8 8 9 8 11 12 11 12 12 12 13 12 12 13 14 15 14 14 14 16 14 13 13
7 6 6 6 7 7 6 6 8 9 8 7 8 8 10 9 5 4 4 2 4 5 4 2 1 2 2 4 4 4 5 5 5 5 6 7 7 6 6 7 7 7 7 7 7 7 7 7 7 7 7 7 6 7 7 9 12 11 10 12 12 13 13 13 13 14 13 12 13 15 15 15 14 12
7 7 7 7 7 8 9 10 7 3 4 4 3 1 2 5 6 1 5 3 2 3 4 3 3 3 3 3 4 5 5 5 5 5 5 5 6 6 7 7 7 7 7 8 8 7 7 8 7 8 8 7 9 7 8 11 9 9 10 11 11 12 14 13 13 14 14 13 10 12 15 14 13 12
5 4 4 4 4 4 5 4 2 2 3 3 3 1 1 1 3 3 3 4 2 1 2 3 3 4 4 5 5 5 4 4 5 5 6 6 6 6 6 6 5 7 7 8 8 8 9 8 5 7 8 9 10 12 11 5 5 7 10 11 11 12 13 14 13 12 12 12 10 11 13 14 15 14
4 4 5 5 4 4 5 2 4 4 2 2 2 1 2 2 1 3 5 4 2 1 1 3 4 4 4 4 3 3 4 5 6 6 6 5 6 6 6 5 6 7 7 7 8 10 8 5 4 5 7 9 10 11 12 10 12 10 5 10 12 11 14 14 14 14 10 10 11 11 12 13 15 14
5 5 5 4 3 3 5 4 3 5 3 3 3 2 3 1 2 3 4 3 3 3 3 3 4 4 4 4 4 5 5 5 5 5 5 6 6 5 5 7 7 6 7 9 9 8 7 4 4 5 5 8 10 10 12 12 10 10 10 9 11 13 13 13 12 12 14 10 10 12 12 12 14 13
3 3 3 3 4 3 3 4 2 2 2 1 1 2 3 5 1 3 4 4 3 3 3 3 3 3 5 5 5 4 5 5 5 5 6 6 5 5 7 6 7 7 8 8 7 7 6 4 6 4 2 5 8 9 9 11 12 12 12 11 8 11 12 13 14 11 12 13 15 14 11 11 14 16
3 2 1 2 4 1 4 4 2 1 1 2 3 2 2 0 2 2 3 3 3 4 4 4 4 5 5 5 4 4 4 5 5 5 6 6 6 6 7 6 7 8 7 7 8 7 6 6 6 3 4 6 8 7 8 9 9 8 9 10 12 11 12 11 13 14 12 11 12 13 15 15 14 13
3 5 4 2 1 3 1 2 2 2 3 1 4 5 6 5 4 3 3 2 1 2 3 4 4 4 5 5 4 4 5 4 5 6 5 5 7 7 9 8 7 5 7 8 7 7 6 8 4 5 6 6 6 7 7 8 11 11 11 11 13 16 17 14 12 11 13 11 11 11 13 13 13 11
5 3 1 2 1 0 1 3 4 3 2 4 4 4 2 2 2 2 0 3 2 2 3 4 4 6 4 3 4 4 4 5 5 4 5 6 7 6 7 6 6 6 7 8 8 7 7 8 3 3 6 5 4 6 8 9 10 11 11 11 12 14 16 17 17 15 11 9 10 11 11 12 11 11
4 3 3 2 3 3 3 1 4 4 4 3 2 1 1 1 1 1 2 3 3 4 5 5 3 3 4 4 4 4 4 5 5 6 7 7 6 7 7 6 6 7 7 7 6 7 8 8 3 3 5 5 3 3 7 9 9 10 11 12 13 12 12 13 16 16 14 13 14 13 11 11 10 11
2 1 0 1 2 2 2 3 2 1 1 2 2 1 1 2 1 3 3 4 4 3 2 2 2 3 3 4 4 4 4 5 5 7 6 6 6 6 6 6 6 6 7 6 6 7 8 7 4 3 5 6 4 5 7 9 10 10 10 11 12 13 13 12 12 12 11 12 17 19 22 19 12 10
2 1 1 1 1 1 3 4 4 3 3 0 3 3 2 2 2 3 3 3 4 3 2 2 2 2 3 3 4 5 5 6 7 5 5 6 6 6 6 7 7 7 6 6 7 8 8 6 5 5 4 5 3 4 6 8 9 9 11 12 14 13 12 12 13 14 12 11 15 21 20 22 20 18
Wind_Direction
229 196 202 210 198 240 194 131 169 35 82 90 61 14 338 344 276 297 307 303 298 327 336 318 199 217 158 170 197 199 211 220 220 203 217 236 242 247 233 222 223 223 223 225 227 228 231 233 231 236 240 243 245 249 254 258 260 263 268 273 275 278 280 282 284 285 284 283 281 280 279 279 279 278
239 283 263 178 176 196 226 232 232 199 162 149 146 158 161 87 241 261 280 283 305 307 302 289 88 200 169 203 210 214 218 223 222 228 233 238 247 250 248 226 226 229 230 229 230 232 233 235 235 236 235 235 240 243 246 249 252 257 261 263 268 271 273 274 274 276 278 277 275 274 275 277 278 279
212 240 283 40 328 165 192 218 299 282 129 137 115 106 147 196 224 251 249 273 260 259 281 297 304 320 303 259 243 219 203 213 214 220 231 231 236 248 254 241 224 228 232 233 233 234 235 236 236 239 240 234 233 236 236 239 243 249 253 258 261 264 267 270 270 272 274 274 272 270 269 271 272 273
188 199 205 224 261 265 328 337 346 271 151 136 160 196 199 188 194 210 232 249 267 257 274 281 287 278 286 287 270 231 226 227 224 219 232 242 257 258 254 255 245 230 227 229 231 234 237 237 239 240 242 241 231 229 233 234 239 244 247 254 258 262 264 266 268 267 266 268 269 269 268 268 268 268
167 156 163 172 180 171 190 205 227 243 173 172 199 211 196 204 213 208 214 241 269 269 251 279 290 299 308 289 268 263 238 235 236 228 224 230 236 241 243 248 248 241 232 231 233 235 237 239 240 241 243 244 240 236 239 242 245 247 249 252 255 257 260 260 262 263 265 265 263 265 267 267 267 268
190 164 160 162 156 159 222 222 231 250 250 225 229 210 201 213 227 206 216 228 245 273 261 249 247 261 255 269 262 292 299 269 254 262 262 256 248 244 246 255 261 258 248 240 240 241 244 247 247 246 245 245 244 244 245 247 247 247 246 247 250 252 254 256 255 256 259 261 261 260 260 261 264 266
170 167 179 197 180 164 181 210 227 238 246 241 245 257 221 226 224 237 253 267 267 272 279 267 272 259 258 270 284 279 268 278 262 255 258 259 257 257 255 256 260 262 261 249 231 232 233 234 237 238 239 240 240 242 245 246 247 246 245 245 247 250 252 252 252 252 251 254 256 258 257 258 259 262
169 176 184 193 186 180 179 175 202 222 229 229 222 235 242 252 250 235 229 230 243 258 269 271 271 280 286 282 282 285 280 275 269 244 243 245 252 254 253 255 256 261 262 259 248 235 230 232 233 236 237 237 237 239 242 245 247 248 248 247 247 247 249 249 249 249 249 251 253 255 255 254 255 258
184 193 202 198 187 186 177 178 184 192 217 213 217 216 213 222 227 239 242 237 232 245 257 273 270 278 281 275 271 266 274 276 269 260 244 240 243 245 247 252 254 256 256 254 252 247 240 236 237 238 238 238 239 240 241 242 245 247 249 250 249 248 247 247 247 247 247 249 251 253 254 252 250 255
186 186 191 200 198 204 208 191 180 184 207 217 218 217 215 214 180 255 257 253 271 267 263 268 279 274 270 272 268 267 257 269 278 275 266 262 258 258 258 254 262 267 269 272 255 247 245 244 242 241 239 241 242 241 242 243 245 247 249 250 250 248 247 247 248 248 248 247 248 250 253 255 255 255
184 184 184 184 184 221 233 222 199 177 201 212 220 214 237 251 217 236 255 225 249 262 266 261 252 265 262 253 272 268 266 265 260 266 277 275 259 250 246 254 251 265 271 266 268 272 271 265 258 238 237 242 243 243 242 244 245 246 247 248 248 248 248 247 247 250 251 251 249 248 249 251 255 253
178 170 183 186 204 230 232 230 220 185 202 195 215 213 219 202 236 266 264 254 252 252 251 252 274 268 274 277 268 274 277 272 269 254 254 265 272 270 250 243 264 265 264 267 269 271 270 264 258 257 252 244 243 244 247 247 246 246 246 246 246 248 247 247 246 247 249 252 254 256 256 254 254 254
154 156 160 183 211 241 223 223 225 28 26 347 286 249 228 234 240 260 268 271 261 258 267 270 264 269 270 266 275 282 277 268 265 266 267 270 270 276 289 283 269 274 278 274 273 269 265 267 265 266 261 250 248 246 242 244 243 243 244 244 246 245 245 248 251 252 252 252 252 251 252 251 251 251
163 172 179 187 214 246 299 53 58 81 112 94 315 314 331 346 346 307 299 295 291 283 274 272 273 273 271 274 276 280 279 288 293 289 294 297 298 299 286 283 266 267 270 276 272 267 266 275 278 273 279 281 275 279 265 257 253 244 236 239 242 245 247 250 251 250 247 248 249 249 249 251 251 250
162 161 171 200 235 254 139 183 221 18 79 96 302 313 304 293 276 284 274 270 274 275 273 271 267 266 273 275 286 287 293 288 304 314 309 295 292 283 287 285 282 245 268 275 285 283 284 292 288 284 279 277 271 267 267 272 270 266 265 253 237 237 241 242 244 244 244 245 247 248 247 248 250 250
150 155 173 201 201 124 143 136 103 42 81 105 240 259 273 277 269 237 237 256 263 264 271 271 268 271 268 278 278 284 295 319 316 299 299 292 288 287 282 283 283 314 332 316 307 290 291 287 281 279 273 269 267 262 256 255 258 262 261 259 263 265 258 251 249 251 252 251 251 252 252 250 250 252
142 159 175 192 156 147 136 139 156 162 186 235 253 275 286 275 262 255 243 233 239 263 262 265 267 263 269 268 267 274 287 281 277 289 289 293 296 296 292 284 292 296 331 305 285 282 285 280 277 275 268 264 262 263 259 257 258 259 261 267 267 261 259 262 266 268 268 264 257 254 254 254 252 251
152 174 172 162 181 179 184 177 166 170 190 196 238 258 253 260 269 262 250 244 237 235 245 254 261 261 267 267 263 268 266 274 284 298 287 295 291 287 279 284 283 281 273 267 277 277 274 263 266 267 266 263 262 261 259 260 264 266 256 253 257 264 271 275 276 274 269 266 264 259 254 253 252 251
166 162 167 188 193 191 205 200 174 178 197 192 197 216 236 248 255 258 260 251 235 232 232 237 244 256 259 263 268 272 258 275 270 260 272 274 271 272 275 270 261 265 245 251 255 270 271 250 250 251 261 267 269 261 259 262 273 282 286 282 278 279 279 277 275 271 266 260 255 254 254 258 261 261
174 165 179 192 199 205 213 216 210 213 194 190 233 231 234 250 258 258 252 254 255 249 227 212 229 240 241 175 203 244 269 273 266 267 265 263 261 266 272 271 270 267 258 249 263 274 280 278 285 290 289 288 284 283 286 291 290 285 281 280 278 277 276 274 270 267 263 259 257 258 262 264 265 265
183 180 192 199 205 208 211 201 195 209 220 244 248 244 243 246 261 267 262 254 253 251 246 247 247 269 298 297 304 289 269 257 258 266 264 258 258 258 261 265 273 267 274 269 265 276 283 279 273 284 282 288 291 290 290 291 286 280 276 276 278 277 276 272 269 265 264 266 269 268 267 265 265 264
195 202 206 205 201 199 206 181 187 182 182 225 241 241 236 246 248 250 258 268 267 264 294 326 291 262 270 265 256 253 252 252 243 217 240 247 253 258 259 268 266 279 276 274 267 265 272 305 317 313 305 298 286 290 291 289 285 285 284 280 278 274 270 268 268 268 269 270 269 269 267 266 266 265
197 213 214 210 199 193 186 182 184 179 180 219 230 235 234 243 257 278 353 346 330 330 290 272 286 275 257 253 252 251 250 247 244 229 238 252 256 266 272 275 281 281 272 264 347 331 318 330 330 326 311 296 290 286 288 287 286 285 284 280 278 271 272 272 271 270 270 269 270 269 268 267 265 262
196 207 204 210 210 208 200 183 185 184 193 214 224 237 243 255 262 24 339 313 316 312 295 291 296 294 284 272 261 252 247 237 219 229 234 240 248 254 260 265 266 270 282 330 1 325 314 317 311 314 296 300 302 299 291 284 281 282 285 286 283 280 277 277 275 273 270 268 267 268 267 265 259 256
200 198 204 202 197 198 191 192 196 175 178 214 289 286 292 37 13 318 308 311 318 314 308 290 276 266 256 247 244 251 248 285 288 271 256 246 244 272 298 312 316 307 304 313 330 312 305 316 295 296 285 279 285 292 288 286 284 285 286 282 280 278 282 284 285 283 278 274 270 267 265 262 255 247
209 206 190 225 176 182 183 176 147 135 146 140 269 76 91 109 4 348 300 292 281 276 276 276 271 272 272 280 322 317 310 306 312 338 337 341 343 330 320 311 307 302 296 298 304 294 294 291 286 289 285 283 282 281 294 292 287 287 285 278 274 281 285 288 286 284 281 281 283 282 281 278 263 247
194 183 201 187 155 157 130 118 123 120 101 166 109 99 143 164 247 261 266 268 277 273 271 268 271 273 271 282 286 306 326 321 331 352 340 327 314 303 292 283 275 279 284 289 288 286 279 274 272 273 278 278 282 289 287 293 297 300 294 292 294 291 289 288 285 284 283 284 284 281 280 275 272 254
183 187 187 105 105 104 111 114 117 131 183 196 135 202 211 223 228 258 259 248 249 255 261 264 255 260 288 321 329 323 344 347 340 324 313 298 285 275 276 278 277 273 276 277 277 269 263 266 270 268 272 283 290 293 295 286 285 295 303 304 297 295 293 291 287 287 284 283 284 284 285 287 278 267
48 88 103 112 116 123 128 139 145 170 214 226 229 229 234 242 259 242 246 253 254 256 252 254 314 333 333 323 309 327 337 325 313 293 277 274 274 274 270 272 275 283 287 285 276 269 264 266 273 281 285 279 285 282 281 286 294 298 299 303 304 302 302 295 291 293 291 286 286 285 285 287 285 273
113 111 116 120 126 133 146 153 184 202 204 209 218 233 240 241 248 244 240 237 237 244 249 255 269 278 271 261 288 327 301 281 274 273 276 281 285 290 294 297 291 283 277 271 268 264 263 269 277 274 274 279 277 280 283 294 298 298 299 297 296 297 285 298 299 293 288 291 289 290 288 285 280 276
107 128 140 158 169 165 179 193 221 234 209 190 205 224 221 224 237 244 240 236 236 236 240 240 228 239 259 356 332 290 285 278 272 274 286 286 286 296 289 288 288 287 277 270 265 267 278 293 294 293 292 287 286 280 284 291 294 297 299 298 306 304 307 302 294 293 296 293 293 287 288 287 281 271
142 144 131 124 171 145 176 216 232 223 223 224 214 218 216 220 226 235 244 244 238 249 245 237 227 247 342 301 294 293 285 285 282 283 285 282 286 286 290 286 284 283 282 277 283 299 306 303 299 282 275 281 285 289 293 295 292 294 296 303 305 303 303 306 307 305 300 300 298 296 292 291 285 281
155 155 157 182 180 187 196 204 211 211 212 217 217 219 219 222 223 222 218 226 229 225 219 220 197 233 335 319 296 287 283 285 294 282 285 284 282 280 272 274 279 287 297 302 303 301 302 296 286 280 278 280 275 279 297 302 297 298 302 308 311 307 308 308 309 307 313 308 301 301 301 295 290 274
159 180 191 196 196 195 206 212 214 212 203 204 205 216 224 228 242 240 244 312 21 30 51 53 6 328 310 281 295 290 292 291 282 290 286 281 275 278 282 286 289 291 296 299 307 305 303 299 295 290 284 283 280 270 263 275 281 292 301 308 309 310 309 311 308 307 305 300 297 301 301 301 293 278
181 187 208 209 194 190 212 219 223 241 214 226 236 241 147 184 217 207 63 70 32 22 359 354 331 298 296 320 298 287 282 288 292 288 277 277 288 288 290 292 297 302 311 314 308 305 303 300 304 306 314 318 310 293 218 226 272 289 306 305 310 310 312 312 310 309 308 304 306 301 305 303 299 303
209 238 247 250 259 244 257 265 266 278 266 200 187 134 250 313 286 113 98 70 89 222 292 303 307 333 324 289 273 274 288 300 300 296 302 297 293 293 292 292 306 317 316 309 312 310 301 295 307 323 324 319 321 319 321 205 222 300 306 309 314 316 313 312 307 306 305 309 311 311 312 308 305 299
222 237 246 254 247 251 260 217 201 215 244 324 348 34 35 279 159 118 153 162 88 79 261 301 307 275 262 273 294 312 321 312 298 297 293 299 299 296 303 316 318 309 310 313 306 295 292 302 334 324 322 323 323 319 306 316 314 306 299 314 318 318 318 314 315 315 312 310 314 321 310 303 299 296
230 239 254 261 281 319 303 290 24 42 29 40 7 315 269 332 52 68 67 44 15 359 351 319 315 322 316 322 323 309 292 285 291 299 308 307 305 312 324 318 309 314 312 300 294 293 300 317 330 327 330 324 320 315 316 318 318 320 329 325 318 320 317 316 315 320 321 322 329 319 312 304 304 306
273 287 306 320 337 339 345 60 59 5 23 278 307 317 306 280 252 64 51 43 14 341 324 307 293 328 329 311 287 283 293 304 308 313 311 307 313 321 318 312 312 307 299 298 305 307 311 319 332 334 336 313 305 301 302 305 308 307 313 314 305 316 319 320 320 319 322 332 334 325 311 293 279 283
219 244 295 280 257 5 45 10 19 42 316 283 272 304 305 142 128 102 70 46 35 19 341 332 323 298 284 284 289 301 300 309 314 314 309 314 325 317 308 305 301 298 299 311 312 311 316 330 328 302 273 272 265 277 291 285 281 288 303 317 327 324 318 316 320 326 329 338 333 331 330 333 338 334
202 204 214 191 54 69 17 1 357 341 274 299 42 50 51 46 50 60 71 49 316 303 294 287 286 281 277 280 301 316 314 313 314 308 320 329 315 305 300 301 300 309 314 309 313 316 327 324 306 223 257 284 304 306 305 324 330 331 330 326 331 330 323 320 322 329 328 339 342 335 333 336 326 326
213 215 138 149 153 145 84 262 256 256 348 36 33 45 18 38 36 107 174 227 226 221 247 261 261 256 269 313 323 320 319 317 309 321 330 315 305 306 309 313 311 319 315 317 318 321 321 310 315 324 314 322 339 339 333 333 330 329 326 327 329 330 328 326 332 334 334 346 348 347 336 339 344 355
163 185 201 147 154 160 202 196 50 40 46 43 53 67 288 322 6 119 264 247 214 214 225 235 258 338 336 304 308 325 323 316 326 327 306 300 310 313 314 313 315 315 317 310 316 323 320 312 330 314 323 319 294 315 336 338 331 331 331 334 334 330 329 332 338 338 340 351 359 4 358 349 348 350
118 116 88 109 129 180 225 92 110 323 10 133 175 161 40 321 311 288 268 259 257 259 294 339 342 309 307 326 336 332 320 320 312 293 298 309 311 311 310 314 318 317 314 317 330 323 313 314 322 298 321 319 325 342 344 344 341 340 338 334 334 337 335 340 342 342 351 3 358 357 358 353 345 338
97 75 13 50 95 145 168 150 152 185 241 347 53 30 8 326 271 259 273 298 310 297 281 289 313 307 321 359 355 313 305 289 284 294 310 311 313 313 318 323 314 318 315 332 328 317 312 311 328 324 312 300 341 350 349 349 342 341 345 346 343 338 339 344 349 349 350 348 355 354 355 351 346 345